Regional Weather Roundup
Issued by NWS State College, PA

Home | Current Version | Previous Version | Text Only | Print | Product List | Glossary On
Versions: 1 2 3 4 5 6 7 8 9 10 11 12 13 14 15 16 17 18 19 20 21 22 23 24 25 26 27 28 29 30 31 32 33 34 35 36 37 38 39 40 41 42 43 44 45 46 47 48 49 50
000
ASUS41 KCTP 211503
RWRCTP

REGIONAL WEATHER ROUNDUP
NATIONAL WEATHER SERVICE STATE COLLEGE PA
1000 AM EST SUN DEC 21 2014

Note: "fair" indicates few or no clouds below 12,000 feet with no
significant weather and/or obstructions to visibility.

* = STATION THAT DOES NOT REPORT PRECIPITATION /E.G. RAIN...SNOW...ETC/
    THUNDER OR FOG.

PAZ002>004-007>009-013>016-020>023-029>032-211600-
WESTERN PENNSYLVANIA

CITY           SKY/WX    TMP DP  RH WIND       PRES   REMARKS
ERIE           CLOUDY    31  24  75 S5        30.32S
MEADVILLE      CLOUDY    28  23  81 CALM      30.28S HAZE
FRANKLIN*      CLOUDY    27  19  74 CALM      30.30S
NEW CASTLE       N/A     29  23  78 CALM      30.33R
BEAVER COUNTY  CLOUDY    30  19  64 CALM      30.30S
BUTLER*        CLOUDY    28  23  80 CALM      30.32R
PITTSBURGH INT CLOUDY    30  20  66 CALM      30.31R
PITTSBURGH     CLOUDY    30  17  58 CALM      30.30S
INDIANA*       CLOUDY    28  23  80 CALM      30.34S
LATROBE        CLOUDY    28  23  80 CALM      30.33S
WASHINGTON CO* NOT AVBL
$$

PAZ004>006-010>012-017>019-024>028-033>037-041-042-045-046-049>053-211600-
CENTRAL PENNSYLVANIA

CITY           SKY/WX    TMP DP  RH WIND       PRES   REMARKS
BRADFORD       CLOUDY    25  20  81 W5        30.25R
DUBOIS         CLOUDY    26  22  84 CALM      30.26R
CLEARFIELD     CLOUDY    28  20  71 CALM      30.29R
JOHNSTOWN      CLOUDY    24  19  81 NW5       30.24R
ALTOONA        PTSUNNY   28  22  78 NW6       30.30R
STATE COLLEGE  CLOUDY    28  21  74 CALM      30.31R
WILLIAMSPORT   CLOUDY    32  20  61 NW7       30.34R
SELINSGROVE    CLOUDY    32  22  66 NW6       30.35R
FT INDIANTOWN  CLOUDY    31  21  66 NW3       30.35R
CAPITAL CITY   CLOUDY    31  23  72 CALM      30.36R
HARRISBURG     CLOUDY    30  22  72 NW6       30.35R
YORK           SUNNY     34  23  64 VRB6      30.34R
$$

PAZ038>040-043-044-047-048-054-055-060>062-067>071-211600-
EASTERN PENNSYLVANIA

CITY           SKY/WX    TMP DP  RH WIND       PRES   REMARKS
SCRANTON       CLOUDY    30  20  66 NW5       30.31R
MOUNT POCONO   CLOUDY    26  20  77 NW8       30.24R
ALLENTOWN      CLOUDY    33  20  58 N10       30.33R
QUAKERTOWN*    CLOUDY    32  21  64 NW7       30.33R
READING        CLOUDY    33  23  66 NW8       30.34R
LANCASTER      CLOUDY    31  24  75 NW6       30.34S
COATESVILLE    SUNNY     32  27  80 NW7       30.32R
POTTSTOWN      CLOUDY    33  23  66 NW6       30.35R
BLUE BELL      MOSUNNY   36  23  60 N5        30.33R
DOYLESTOWN     MOSUNNY   34  22  61 NW6       30.32R
WILLOW GROVE   NOT AVBL
NORTH PHILA    SUNNY     37  20  50 N10       30.35S
PHILADELPHIA   MOSUNNY   36  20  52 NW6       30.36R
$$


USA.gov is the U.S. government's official web portal to all federal, state and local government web resources and services.